Lid_Strength_Index
15 15 16 16 16 17 17 17 17 17 17 17 16 16 17 17 16 17 17 17 16 16
15 16 16 16 17 17 17 17 17 17 17 17 17 16 17 17 17 17 17 17 16 15
16 16 16 16 17 17 17 17 17 17 17 17 17 17 17 17 17 17 17 16 16 16
17 16 17 17 17 18 18 18 17 17 17 17 18 17 18 18 17 17 17 16 16 15
17 17 17 17 18 18 18 17 17 17 17 18 18 17 18 17 17 17 16 15 15 15
18 18 18 18 18 18 18 18 18 18 18 18 18 18 17 17 16 16 15 14 14 14
18 18 18 18 18 18 18 18 18 18 18 18 18 17 17 17 16 15 14 13 13 13
18 18 18 18 17 17 17 18 18 18 18 18 18 17 17 16 15 15 14 14 13 13
18 18 17 17 17 17 18 18 18 18 18 19 17 14 13 14 14 13 13 14 13 13
17 17 17 17 17 18 18 18 19 19 18 18 17 12 11 11 13 13 13 13 13 12
17 17 17 17 18 18 19 19 19 18 18 17 16 12 11 10 13 13 13 13 12 12
16 17 17 18 18 18 18 19 19 18 18 17 17 11 10 10 13 13 13 12 12 11
16 16 17 17 18 20 19 17 17 17 17 17 18 12 10 10 13 17 14 13 11 9
16 16 16 17 19 20 18 18 19 18 18 17 17 16 10 9 12 13 15 14 12 10